Theta_e
288 288 287 286 285 285 283 282 281 280 279 278 277 276 276 275 276 275 276 276 276 275 275 275 274 274 273 272 273 272 271 270 268 270 272 273 273 274 275 275 276 276 276
288 287 286 285 285 283 281 281 280 279 278 278 276 276 276 276 276 276 276 276 275 274 274 273 273 274 272 271 271 270 270 271 270 268 271 272 272 274 274 274 275 276 276
287 286 285 284 283 282 281 280 279 278 278 277 276 275 275 276 276 276 276 275 275 274 273 273 272 272 271 272 271 270 271 272 271 270 270 272 273 274 273 273 274 274 275
286 285 283 283 283 281 280 279 279 278 277 276 276 276 276 275 275 276 275 274 274 273 274 273 272 272 271 271 271 271 272 271 271 271 271 272 272 273 272 271 271 272 272
284 283 283 283 282 281 280 279 278 277 277 276 275 275 275 276 276 275 275 274 273 273 273 273 273 273 274 274 273 273 272 270 271 272 271 271 270 270 270 272 270 271 272
283 282 283 282 280 279 279 278 277 277 276 276 275 275 275 276 280 280 276 274 274 273 272 272 272 273 273 276 277 278 278 272 267 265 270 269 269 270 272 271 270 269 267
282 282 281 281 279 279 278 277 277 276 276 275 275 275 274 275 281 281 279 275 274 273 272 272 272 273 273 272 274 276 277 277 278 275 267 270 270 272 272 270 270 269 268
282 281 281 280 279 278 277 277 276 275 275 275 274 275 274 274 282 282 280 275 274 273 272 272 272 272 272 272 272 272 273 273 274 273 273 272 274 275 272 272 270 268 268
281 280 280 280 279 277 277 276 275 275 275 274 275 274 274 274 282 283 280 274 274 273 272 272 272 272 274 276 274 270 271 271 275 277 277 278 277 276 274 271 265 264 263
281 281 280 280 279 278 277 276 276 276 275 275 275 274 274 274 280 283 281 275 272 272 272 273 275 272 275 277 274 269 266 269 271 267 268 269 270 269 272 270 268 264 264
282 281 280 280 279 279 277 276 276 275 276 275 275 273 273 273 273 282 282 275 273 271 271 271 272 276 277 278 279 270 270 273 268 262 263 264 266 267 268 269 269 267 264
282 280 280 280 279 278 277 276 276 276 275 275 274 272 272 272 274 278 282 281 277 269 269 271 271 276 278 278 278 279 280 276 258 257 258 262 264 265 267 267 268 268 268
280 279 280 280 278 278 277 276 275 276 276 274 273 272 271 270 270 277 278 280 281 275 272 272 275 277 278 277 277 278 271 260 258 256 260 262 264 266 266 266 266 267 267
278 279 279 279 278 278 278 277 276 275 276 275 273 273 273 269 268 267 269 272 277 277 277 275 277 277 276 274 267 271 266 264 262 261 262 264 264 263 262 264 263 263 262
278 278 279 279 279 278 277 277 276 278 279 276 276 276 273 268 269 271 269 266 266 268 260 257 259 260 263 265 263 264 264 265 263 264 262 261 261 262 262 262 262 261 259
276 277 279 279 278 277 276 276 281 281 281 283 282 278 273 276 276 277 276 276 275 276 265 259 261 264 266 266 264 265 264 264 263 263 261 261 261 260 260 260 261 260 258
276 277 279 278 277 276 274 273 271 278 280 281 282 280 277 274 277 278 278 278 278 277 271 269 269 268 267 265 265 264 263 262 263 262 261 260 260 260 259 258 259 259 257
269 270 272 275 274 275 274 273 273 273 273 273 279 280 279 278 277 278 278 278 272 276 268 268 265 264 263 263 262 262 259 258 258 259 259 260 259 258 257 256 257 257 256
268 269 270 270 270 271 271 272 272 273 271 271 262 274 278 279 279 278 279 274 272 268 263 261 261 261 259 256 254 253 252 252 254 253 253 255 257 257 255 256 257 257 256
261 265 265 264 262 262 263 264 263 265 267 265 268 271 266 270 271 273 269 261 262 262 259 261 259 257 250 249 248 248 248 249 250 249 250 253 257 257 255 254 255 255 254
262 260 263 261 263 264 264 264 265 265 266 265 266 267 269 271 270 266 260 259 260 260 260 259 257 251 247 246 245 246 247 251 249 248 250 254 252 248 252 254 253 252 251
258 257 257 260 258 260 262 260 261 262 262 261 256 257 274 263 258 260 261 260 260 260 259 257 255 253 253 249 248 246 248 249 247 247 250 251 248 248 249 249 248 250 249
256 256 255 254 256 256 257 258 258 260 259 259 259 261 261 262 260 261 261 259 258 257 256 254 254 253 253 251 247 249 250 250 250 248 249 248 246 247 245 246 247 244 246
254 254 254 253 253 254 254 254 254 256 255 255 255 257 258 258 257 259 258 257 256 256 255 254 254 254 253 251 244 245 247 248 245 248 247 247 247 245 243 242 245 247 249
252 253 254 254 253 254 254 253 254 252 252 255 254 255 257 258 258 257 257 256 256 255 255 254 253 252 252 251 249 246 245 253 250 249 246 244 246 243 242 242 245 246 248
251 252 251 252 253 253 254 256 256 257 257 258 258 258 258 257 257 257 256 256 255 255 254 254 253 252 250 250 250 251 253 256 253 252 249 247 247 246 246 246 246 248 249
Wind_Speed
10 10 11 11 12 12 10 11 11 10 9 9 9 10 9 9 8 8 8 8 8 8 7 7 7 5 4 3 3 3 3 2 1 3 3 4 5 9 10 8 9 9 8
11 11 11 10 11 12 12 12 12 11 8 9 9 8 9 8 8 8 8 7 8 8 7 6 6 5 5 4 3 3 2 2 1 3 4 4 6 9 9 9 8 8 8
12 12 11 12 13 14 13 13 14 14 11 9 10 8 9 8 7 6 7 7 7 6 6 6 5 5 4 3 2 2 1 1 1 3 6 4 6 8 10 8 9 9 8
14 15 13 14 14 13 13 13 11 11 13 11 9 8 9 9 7 7 7 7 7 6 6 5 5 4 5 4 2 1 1 2 2 4 5 7 7 8 7 10 13 10 12
14 14 15 13 12 13 13 13 12 12 10 10 11 8 7 7 6 8 8 8 7 7 5 5 5 5 7 5 3 3 4 2 3 3 5 7 7 9 10 9 10 12 12
13 13 13 13 12 13 12 13 12 11 11 11 10 10 9 6 15 15 10 7 8 7 7 5 5 5 5 6 6 6 5 3 2 0 3 6 9 8 9 9 10 11 11
13 13 14 15 15 14 14 14 13 12 11 10 10 10 9 7 17 16 14 6 7 6 6 6 5 4 5 3 6 7 6 10 9 7 2 5 8 9 9 13 12 11 11
13 13 14 15 15 14 14 13 11 10 12 11 10 9 8 7 18 17 15 6 5 6 6 6 5 5 5 4 5 5 5 6 5 4 6 8 8 8 9 9 11 11 12
15 15 16 16 15 15 15 14 12 11 10 10 9 9 9 8 19 18 14 6 6 6 6 5 5 4 8 10 5 4 5 3 7 12 13 14 17 20 16 9 6 7 11
17 16 15 16 17 17 16 15 12 11 11 8 9 9 9 8 18 20 16 6 6 5 5 5 10 8 12 10 7 5 5 5 4 2 2 6 9 10 15 7 6 7 8
12 13 15 15 16 15 14 12 12 11 9 10 10 9 8 9 10 20 20 8 7 5 5 4 5 13 12 13 14 5 7 4 1 2 3 3 5 6 5 5 7 7 8
13 14 15 15 12 12 14 12 12 11 10 9 9 6 5 6 12 19 21 20 13 6 6 5 6 13 14 15 12 15 14 8 2 1 1 4 4 5 5 6 8 9 8
13 13 13 14 12 13 14 13 11 10 9 8 8 7 7 6 7 20 20 20 20 10 7 10 14 15 17 14 9 10 2 2 1 1 4 5 4 6 8 7 8 9 10
13 12 12 13 12 11 9 9 11 11 10 8 8 8 7 6 7 7 5 8 16 13 12 7 10 12 11 9 1 5 2 2 3 3 4 4 4 4 6 5 6 7 8
10 10 10 9 11 11 11 12 12 12 14 11 10 11 9 8 12 15 14 8 7 8 4 2 0 1 3 3 2 4 3 3 3 4 5 5 5 5 6 4 6 6 6
9 8 9 8 8 8 8 6 17 16 18 19 17 12 6 12 13 21 22 21 21 19 4 4 4 5 7 6 4 3 2 3 4 4 4 4 5 5 6 5 6 6 7
9 10 9 9 9 9 8 9 9 13 17 20 20 18 18 15 18 18 20 20 19 16 9 8 8 7 5 3 3 3 3 3 3 4 5 4 5 5 6 5 6 6 6
6 8 8 8 8 8 9 9 8 10 11 9 20 18 19 17 19 19 18 15 7 14 4 5 4 4 3 4 3 4 3 2 3 3 4 5 4 5 5 5 6 7 6
6 6 6 6 7 7 7 7 8 8 8 6 1 11 16 20 19 19 21 10 9 6 4 4 3 4 3 3 3 3 3 3 3 3 3 3 4 4 5 6 7 8 8
2 5 5 4 3 3 4 5 4 6 7 6 8 10 5 6 9 10 6 3 4 3 4 3 3 3 3 4 3 3 2 2 3 3 3 3 5 4 5 5 6 6 6
4 3 6 4 5 5 6 7 7 7 8 8 8 6 14 12 10 8 5 4 5 4 4 4 4 4 3 4 3 3 3 4 3 3 3 4 4 3 4 5 5 4 4
3 3 2 4 3 4 5 4 4 6 5 5 2 3 19 5 3 4 4 4 4 4 4 5 4 4 4 4 4 4 4 4 4 4 4 4 4 3 3 3 3 4 4
3 3 3 2 3 3 3 4 5 6 5 6 5 6 6 6 7 6 5 5 4 3 3 4 4 3 3 3 4 5 5 5 6 4 5 5 4 4 3 4 4 3 3
3 2 2 1 1 2 2 2 2 2 2 3 3 3 4 3 4 5 4 3 3 3 3 4 4 4 3 4 3 4 5 4 4 5 7 5 5 4 3 3 4 5 5
4 3 2 2 2 2 2 2 3 3 3 3 3 2 3 4 4 4 4 4 4 4 4 3 3 4 7 8 7 7 6 8 5 6 5 5 7 6 4 4 4 4 6
3 3 3 2 2 2 2 2 2 3 3 3 3 3 3 3 3 3 3 4 4 4 4 3 4 7 8 7 8 8 7 10 9 11 7 6 6 5 5 7 7 5 7
Wind_Direction
163 156 153 152 145 141 139 141 142 136 137 134 128 125 122 120 118 115 115 121 115 117 122 119 110 122 113 101 94 100 97 104 172 292 241 301 300 316 314 308 302 296 294
165 159 156 147 145 145 144 146 143 137 136 140 126 124 124 126 126 127 129 129 136 136 125 124 128 129 115 114 100 99 110 153 173 296 296 313 305 314 308 312 305 295 303
157 159 155 160 162 162 158 153 151 145 144 142 130 139 134 131 123 121 132 137 136 132 138 137 140 141 125 114 107 102 83 10 253 257 286 294 304 327 319 302 304 317 323
160 160 167 170 169 162 154 149 146 148 143 143 131 141 141 142 136 138 143 142 137 137 138 141 148 145 149 147 132 108 281 263 245 256 278 317 329 315 303 319 330 335 323
164 167 168 169 164 157 156 152 147 147 145 140 139 142 138 141 153 157 160 155 147 142 144 158 154 160 176 179 165 209 235 226 258 275 330 319 314 323 335 332 315 315 316
168 168 160 160 158 161 153 149 147 147 146 147 151 150 154 163 174 175 162 158 159 161 165 173 165 183 211 211 230 255 259 227 221 56 301 305 309 313 315 318 316 323 325
167 164 161 162 163 163 156 156 159 156 149 152 152 161 170 169 180 183 179 167 164 169 170 174 186 194 198 219 269 268 294 299 283 309 291 297 297 300 309 316 318 309 298
167 165 164 165 165 159 156 159 153 154 160 163 165 169 168 181 188 189 184 173 168 173 183 183 186 188 206 212 237 251 255 244 254 268 255 266 274 306 309 309 309 308 298
177 171 169 168 162 159 159 159 159 162 165 169 171 164 174 182 196 196 185 178 188 198 198 192 198 206 230 244 239 248 251 238 264 284 298 311 314 311 312 314 308 309 307
180 173 165 165 167 169 168 166 168 170 171 166 169 181 183 180 204 202 194 172 198 199 200 200 212 216 239 251 245 230 243 241 257 65 317 300 295 292 307 297 291 291 298
163 160 166 172 171 170 163 168 169 168 168 175 176 173 180 187 204 211 210 191 201 197 202 202 212 235 246 256 262 194 210 232 167 169 245 252 271 276 277 275 284 287 288
157 163 166 166 164 168 170 167 172 170 171 179 176 165 184 192 204 221 217 216 204 185 205 207 213 235 244 254 263 264 258 292 112 10 311 298 287 286 287 291 287 281 275
153 161 166 165 168 170 171 169 171 174 181 182 178 184 196 199 209 216 226 230 230 206 195 214 225 236 242 253 266 260 277 123 134 342 282 282 276 285 295 294 288 285 283
154 163 167 171 170 173 178 182 177 184 186 185 178 199 201 197 203 196 211 225 238 234 221 219 230 230 227 244 253 276 144 176 186 230 267 277 289 276 280 283 295 302 299
156 160 168 175 178 181 192 190 190 199 194 187 195 200 188 208 216 201 196 199 209 218 121 79 194 237 252 253 223 206 196 214 230 247 260 268 275 279 282 297 292 299 286
150 161 175 175 176 181 187 196 213 210 213 213 215 202 197 220 209 203 209 209 216 216 200 186 218 218 229 227 218 222 190 222 237 247 245 255 275 284 289 293 290 287 292
161 172 181 185 182 183 185 183 190 215 208 220 218 215 211 210 217 207 205 206 206 205 213 215 223 209 211 181 177 192 216 215 238 249 261 263 264 269 287 289 290 293 296
141 156 167 179 183 188 193 197 196 198 203 209 224 217 217 213 217 210 202 201 202 222 200 208 179 168 167 182 189 207 201 200 216 233 247 255 254 265 276 275 283 290 296
159 170 172 175 183 186 185 194 200 208 204 203 153 224 212 211 208 210 211 206 202 192 168 175 163 165 178 176 189 202 200 215 220 218 226 233 249 251 261 266 276 288 294
142 146 146 150 139 139 150 172 176 194 202 186 200 207 166 163 214 212 207 144 163 150 153 161 167 175 178 173 193 192 221 238 242 222 226 227 250 242 261 264 270 286 290
168 162 161 142 173 181 184 198 202 204 214 215 223 205 189 198 205 195 176 150 153 146 166 177 186 182 182 184 174 186 203 231 224 212 216 239 233 230 236 255 273 274 270
140 146 146 179 151 171 196 182 184 203 209 209 199 219 220 189 136 165 163 157 161 164 163 173 185 186 184 181 188 186 202 229 236 226 230 235 223 225 224 241 256 271 268
133 148 158 173 177 171 178 189 189 194 196 203 187 198 213 174 168 168 163 153 156 169 168 179 181 189 198 208 195 182 196 221 225 205 228 233 229 230 207 241 248 252 253
89 119 154 199 161 185 189 196 211 195 183 168 169 168 164 138 135 155 153 146 156 175 180 185 192 208 219 226 204 206 213 224 208 219 218 215 231 230 214 231 239 246 262
71 83 96 154 178 207 199 186 178 167 160 157 155 132 129 134 148 151 152 161 173 183 202 206 209 220 234 235 228 227 223 252 238 214 212 201 222 215 213 223 233 242 252
78 85 98 107 113 144 160 164 163 154 158 148 147 145 146 152 153 164 174 183 191 197 210 207 223 231 237 242 244 241 238 249 241 234 213 202 211 225 214 230 236 237 254